Theta_e
303 303 303 302 302 302 302 302 302 302 302 303 303 303 304 305 307 307 304 308 303 295 295 298 298 294 294 294 287 292 291 294 293 288 288 291 289 292 289 291 290 288 287 287 288 284 281 299 297 291 298 301 301 299
302 302 302 302 302 301 301 301 301 301 301 301 302 303 303 304 306 307 301 307 309 298 295 301 302 303 301 299 295 295 291 291 293 291 291 290 289 292 291 285 295 288 293 291 291 290 299 301 300 304 303 299 299 299
301 301 301 301 301 300 300 300 300 301 301 301 301 302 303 303 305 305 303 305 302 297 295 295 295 301 304 303 304 291 294 297 296 297 293 291 288 291 287 290 291 295 297 293 293 296 299 301 304 303 301 300 302 302
301 301 301 300 300 300 300 300 300 300 300 300 301 301 302 303 303 304 300 303 301 296 288 291 301 299 304 304 303 303 301 301 300 298 293 291 288 294 291 293 292 295 295 294 294 297 298 301 302 301 301 301 299 299
301 300 300 300 300 299 299 299 299 299 300 300 301 301 301 302 303 304 303 302 303 295 288 290 298 301 303 302 301 301 300 298 295 292 291 289 293 293 294 293 291 296 295 293 292 298 299 299 302 301 298 298 298 296
301 300 300 299 299 299 299 298 298 299 300 300 301 301 301 300 302 300 293 304 304 302 293 287 298 297 300 302 300 299 299 297 295 293 292 294 298 294 288 288 296 299 302 302 299 302 300 301 301 299 297 297 298 296
300 299 299 299 299 298 298 298 299 299 300 299 300 300 300 301 301 293 293 301 305 303 292 287 289 297 299 298 300 299 299 297 296 294 291 292 294 294 290 287 296 300 300 301 301 300 299 297 296 297 297 297 297 296
299 298 298 299 299 298 298 297 299 299 299 299 299 300 300 301 300 294 300 302 303 296 295 287 287 292 298 294 293 301 297 295 295 293 294 292 295 293 288 295 298 301 300 300 298 298 297 296 296 295 297 296 293 293
298 298 299 299 299 299 298 298 299 299 300 300 301 300 301 298 294 297 304 306 304 297 288 289 285 285 298 296 296 296 298 289 298 291 292 294 292 288 293 297 298 300 298 298 296 295 295 294 293 293 294 292 291 292
298 298 298 298 298 299 299 299 299 299 300 299 298 295 291 298 302 303 300 295 294 295 295 289 292 287 293 293 291 290 293 292 289 294 298 292 291 299 300 297 298 296 296 296 294 292 291 291 291 291 291 291 291 291
298 298 298 298 298 299 299 299 299 299 297 294 290 291 296 299 297 295 290 289 290 287 291 291 290 288 296 289 289 292 289 292 287 293 292 291 288 292 293 292 293 295 295 295 294 293 292 291 289 289 289 290 290 290
298 298 298 298 298 299 299 299 299 297 294 293 293 295 295 292 290 286 286 289 287 286 291 290 290 291 294 296 290 291 288 291 285 298 293 287 287 293 292 291 292 294 294 293 293 292 291 290 290 289 289 289 289 290
297 298 298 298 298 298 298 298 299 299 298 296 291 288 287 288 282 281 280 284 286 289 291 292 290 295 297 295 291 290 287 288 296 292 290 287 290 293 292 292 293 294 292 292 292 292 291 290 289 289 288 289 289 289
297 297 298 298 298 298 298 298 299 298 294 287 285 279 283 282 284 286 286 287 290 289 290 291 291 292 295 291 292 287 291 293 288 284 284 291 291 291 293 294 293 292 292 292 291 291 290 289 288 288 288 288 288 288
297 298 298 298 298 298 298 299 298 297 291 284 285 278 281 287 289 290 291 291 291 292 289 289 292 292 292 290 290 287 287 283 286 285 289 292 292 291 293 294 293 292 292 292 291 291 290 289 288 288 288 288 288 288
298 297 296 298 298 298 298 298 297 295 290 286 285 282 286 285 286 289 288 286 292 291 291 293 289 287 287 288 286 284 284 284 287 290 293 294 290 294 295 294 294 293 293 293 292 291 291 290 289 288 288 288 287 287
297 293 296 297 297 297 297 295 292 287 285 284 283 287 286 285 284 286 288 289 293 288 284 286 284 285 291 287 285 288 287 291 293 294 293 295 295 296 296 295 295 294 294 293 292 291 291 291 291 289 286 287 287 287
293 295 297 297 296 295 294 293 288 286 282 284 282 284 286 288 286 287 289 290 288 287 288 284 289 284 284 284 288 293 295 297 298 296 294 296 297 297 297 296 296 295 294 293 292 292 291 290 290 289 289 288 288 287
295 296 296 297 296 291 287 287 289 281 283 286 286 287 286 287 289 289 289 290 290 290 288 287 284 282 285 291 293 294 296 296 295 295 297 298 299 297 298 298 297 296 294 293 292 291 291 290 289 289 290 291 288 288
297 297 297 297 295 289 285 285 289 286 283 285 287 286 286 287 288 288 289 289 288 287 285 283 283 287 290 293 295 295 295 297 298 295 297 298 299 299 298 298 297 296 293 292 291 289 290 290 291 291 291 290 289 288
295 295 297 297 292 290 286 287 285 286 286 285 287 287 286 288 286 286 287 290 286 285 284 288 289 291 295 294 295 294 294 297 297 298 297 297 299 299 297 297 297 296 295 293 291 289 290 290 290 291 291 290 290 290
293 295 293 293 288 288 285 289 286 288 285 285 285 286 284 283 284 286 288 285 285 287 289 289 290 290 290 291 292 294 294 298 300 301 297 296 298 297 296 297 297 296 296 294 294 292 292 291 292 291 291 290 291 291
294 293 290 289 284 284 283 288 282 284 280 282 285 282 282 283 285 288 283 285 286 290 291 291 291 292 291 292 294 295 297 298 300 301 303 302 301 300 299 298 299 297 296 295 296 295 293 289 290 292 291 291 291 290
294 287 284 282 282 280 285 282 284 283 283 281 280 279 281 283 287 284 281 285 288 290 290 290 290 289 290 291 291 293 296 298 299 301 304 302 298 297 300 299 299 300 299 298 297 296 295 294 291 293 293 291 291 291
283 281 282 279 284 282 280 280 281 281 279 281 280 280 282 285 281 281 282 287 290 291 291 291 291 291 291 292 294 295 299 300 301 301 303 304 303 299 300 300 300 300 300 298 296 296 296 295 294 294 293 293 292 292
278 282 280 281 282 280 281 279 280 280 281 280 282 285 286 284 281 281 288 294 296 296 293 292 292 293 292 294 294 295 298 302 304 302 304 306 304 302 300 298 298 298 301 301 299 297 296 296 295 295 294 292 287 293
278 280 284 287 286 285 283 284 285 283 282 280 283 283 283 281 282 290 296 299 299 301 303 303 299 296 296 297 298 299 301 304 304 305 307 307 307 307 305 302 300 303 302 301 301 300 298 298 297 296 296 296 295 295
283 284 280 284 284 285 282 282 282 282 285 288 287 285 285 286 289 295 298 302 301 302 303 305 306 305 305 304 302 302 302 305 306 306 306 306 307 307 308 308 307 290 303 303 302 302 301 300 299 298 298 297 297 297
282 285 285 282 283 284 285 283 285 289 293 292 288 288 290 296 299 299 300 301 302 301 302 302 304 306 306 305 304 306 305 304 303 302 302 301 302 303 306 307 304 304 305 303 289 296 302 301 301 301 300 299 299 299
283 286 284 284 285 285 288 289 288 291 293 291 290 288 290 293 296 300 299 298 297 299 303 302 304 305 303 303 301 302 305 306 307 306 303 303 304 306 305 306 305 305 305 304 301 298 286 296 293 300 299 300 300 299
287 288 286 286 286 290 292 294 295 294 294 293 292 289 286 287 291 297 299 302 301 302 301 301 301 303 304 303 303 302 301 303 304 305 306 305 305 305 305 305 306 305 305 302 301 301 300 300 301 301 301 300 300 296
287 285 286 285 287 292 294 292 291 288 287 288 293 294 293 291 289 292 294 299 298 296 292 296 296 294 296 296 297 295 292 298 300 302 303 303 304 304 305 304 304 305 304 303 302 301 301 301 301 300 300 299 300 299
287 287 287 287 288 289 292 291 289 288 290 291 292 293 293 288 285 291 296 295 294 294 293 294 295 295 296 296 295 293 291 291 288 286 287 286 287 294 304 305 305 304 304 303 303 302 301 300 301 300 300 301 301 300
Wind_Speed
11 11 11 10 11 12 12 13 13 13 14 14 14 14 15 16 16 6 6 6 5 6 12 20 23 20 15 12 11 6 6 3 3 5 4 4 4 2 4 3 3 6 6 5 4 5 10 6 3 5 10 13 18 15
11 11 11 11 11 11 12 13 14 14 14 14 15 15 15 16 16 11 4 2 4 6 11 17 20 22 21 19 8 7 9 10 5 4 3 4 4 4 7 11 5 7 9 3 7 7 5 8 15 17 12 16 15 15
12 11 11 10 11 11 12 12 13 14 15 15 15 16 15 16 16 11 5 4 4 6 11 11 11 14 16 18 16 8 7 9 7 9 7 4 9 3 10 10 8 7 7 9 11 8 14 16 19 14 11 12 16 17
12 12 11 11 12 11 12 12 13 14 15 15 16 16 16 16 16 15 6 4 4 5 7 5 2 10 10 13 16 20 19 12 7 5 6 6 8 6 5 9 10 11 6 14 18 20 19 15 9 7 10 14 16 17
11 11 12 12 12 13 13 13 14 15 16 16 17 17 17 16 15 11 8 8 9 6 6 9 18 18 5 8 16 20 19 16 9 6 7 8 4 5 7 12 16 13 19 12 14 16 10 15 10 9 10 16 16 15
11 12 12 12 13 13 14 15 16 16 17 17 18 19 18 17 14 5 5 2 5 4 4 5 5 15 10 12 11 14 13 11 7 4 5 6 15 5 5 9 7 12 18 17 17 11 10 14 10 4 12 16 17 15
10 12 12 13 14 15 14 15 16 17 18 19 20 20 20 17 7 5 5 2 1 7 3 6 6 4 7 6 2 2 4 4 5 4 5 6 4 6 5 16 6 16 12 11 9 8 14 4 6 12 14 15 15 14
11 12 13 14 15 15 15 16 17 17 19 21 22 23 22 19 15 9 10 20 11 5 4 5 5 6 1 4 5 2 3 4 5 4 4 5 4 6 8 10 15 15 8 5 3 2 5 6 9 12 12 12 14 13
13 14 14 14 15 15 16 16 17 19 20 22 25 25 5 3 4 3 8 7 5 4 3 4 3 6 3 2 4 3 3 4 4 5 5 4 5 7 7 12 11 7 3 1 4 1 5 7 10 10 12 13 13 14
14 14 15 15 16 16 17 17 17 18 18 22 7 3 3 2 12 13 2 3 5 4 3 4 2 7 7 5 3 4 2 4 4 6 2 4 3 11 8 9 3 5 4 3 2 3 7 8 9 11 10 10 11 13
15 16 16 16 16 16 15 15 15 16 7 3 3 4 6 10 2 2 3 3 3 3 4 3 5 5 3 5 4 3 4 4 5 2 4 3 1 6 7 8 8 8 8 8 7 5 4 6 8 9 10 11 11 13
16 16 16 17 17 16 15 13 13 3 2 3 5 7 4 4 3 4 4 3 3 3 2 2 4 4 4 4 4 4 4 4 7 3 3 2 4 7 6 6 8 7 8 8 7 6 7 8 9 8 9 10 11 11
17 17 16 16 15 13 13 12 13 9 6 2 3 5 4 3 4 5 4 3 3 3 2 5 6 3 3 4 4 4 4 6 9 4 3 2 4 8 4 3 6 7 7 7 8 8 9 9 9 9 9 9 10 9
17 16 16 16 15 14 13 14 11 5 2 3 4 5 4 4 5 2 3 3 2 5 7 8 4 3 3 4 3 5 4 6 3 6 4 6 10 11 1 0 3 5 5 7 9 9 10 9 8 9 10 10 9 11
18 18 18 17 17 17 15 13 9 1 2 3 3 5 6 4 3 1 1 3 3 4 8 6 4 3 4 4 1 4 3 3 1 5 4 8 12 13 6 3 5 5 5 6 7 8 9 9 8 9 11 10 11 11
18 15 9 15 13 10 8 4 2 3 3 3 6 6 6 6 5 1 3 6 4 8 8 2 3 3 4 2 2 1 5 4 4 6 9 11 10 5 6 6 6 5 6 6 7 7 8 8 9 8 10 11 12 12
12 4 6 8 4 2 6 3 2 5 6 5 5 7 9 9 9 8 4 2 2 5 4 4 4 3 4 3 2 3 2 4 6 7 10 15 3 7 7 8 7 6 6 7 6 7 6 6 8 9 10 10 10 11
4 5 7 5 2 2 1 4 3 4 7 7 5 8 8 7 7 7 5 4 3 3 2 3 5 4 4 4 2 1 3 4 6 7 11 4 4 7 7 8 7 7 7 7 6 6 7 7 8 7 8 7 7 8
7 7 9 10 6 3 3 4 3 4 8 5 6 6 4 5 7 9 8 7 5 4 4 4 7 5 6 4 3 4 5 5 8 8 6 2 5 7 7 6 7 7 7 6 6 5 5 6 6 5 5 6 6 5
9 13 12 11 8 3 5 4 3 4 4 3 4 6 5 7 7 6 7 7 5 4 7 7 8 9 7 4 4 5 4 5 6 9 9 2 3 5 5 5 5 7 7 7 7 5 5 5 5 5 5 5 6 6
2 3 9 7 4 5 3 2 4 3 3 5 4 5 5 4 6 8 9 8 8 6 9 10 11 11 11 10 9 8 7 4 6 1 7 4 4 3 4 5 7 5 5 5 5 5 4 6 5 5 6 7 7 7
2 4 2 4 4 4 5 6 4 1 3 5 3 4 7 10 11 11 8 9 10 12 12 12 14 13 12 14 12 11 8 7 6 4 3 6 6 5 5 5 6 5 5 5 5 6 7 6 5 6 6 7 5 6
1 2 2 4 5 6 4 4 6 6 6 4 4 5 6 6 5 3 5 7 9 11 13 13 16 15 14 13 12 10 8 8 6 8 4 5 5 6 6 6 6 7 6 5 5 6 7 6 5 6 7 6 6 7
6 2 4 4 7 5 3 6 4 4 5 5 5 7 8 6 3 5 11 12 13 11 11 15 11 10 9 11 10 10 7 8 8 5 6 6 5 5 7 7 6 5 6 7 6 6 6 6 6 6 6 6 6 7
3 5 4 7 4 5 6 5 6 7 7 6 6 5 4 4 4 6 9 8 6 8 11 11 11 11 9 9 8 8 7 7 7 7 6 7 6 5 6 6 6 5 7 8 8 8 7 7 6 6 6 5 6 7
7 7 8 6 4 5 5 5 5 7 4 5 7 4 4 4 5 7 4 2 2 2 3 7 8 8 9 10 8 6 5 6 5 6 7 9 9 10 10 10 8 6 7 7 8 10 9 8 8 8 6 6 4 5
5 7 7 5 5 4 6 7 7 7 6 7 4 5 3 5 8 4 2 0 3 5 3 2 4 6 6 5 5 6 2 7 5 2 4 9 8 7 9 11 12 8 11 11 10 11 11 10 9 9 7 6 6 5
7 5 8 6 6 5 7 5 5 6 6 5 4 6 5 4 1 2 2 2 4 4 2 1 0 2 2 3 2 5 5 6 7 7 7 6 4 5 6 4 5 10 11 12 12 11 11 10 10 10 9 8 7 7
6 4 4 13 9 6 6 7 6 5 2 2 3 3 2 2 2 1 4 6 4 4 2 1 1 1 2 3 3 3 5 8 10 10 8 6 5 5 6 7 7 8 8 9 5 7 12 10 10 9 9 7 6 7
6 5 5 6 5 4 3 5 5 6 4 3 1 2 2 2 3 5 5 3 3 4 1 1 1 1 3 3 4 5 3 1 0 4 7 6 5 6 7 7 7 6 6 9 9 7 6 7 7 7 7 7 7 7
4 3 5 6 5 7 11 9 7 6 3 1 2 4 3 2 3 3 7 4 5 4 5 6 6 5 5 5 5 6 5 5 4 3 4 6 6 6 6 6 7 6 7 8 8 8 9 8 8 9 10 11 10 9
3 6 3 4 7 5 3 6 6 4 3 2 5 3 3 2 4 7 11 5 8 9 8 8 7 7 7 7 7 8 8 5 5 6 9 7 7 6 5 5 5 6 7 7 6 6 7 7 6 7 7 8 8 10
4 3 5 4 4 3 2 4 6 6 6 7 9 8 8 5 6 4 5 9 8 7 8 8 9 10 12 12 12 9 10 10 13 13 15 14 11 8 7 6 6 7 9 8 7 6 4 3 3 3 6 6 7 8
Wind_Direction
292 293 298 304 308 311 314 314 314 318 324 325 327 326 320 319 322 325 278 262 255 266 269 263 265 270 270 262 264 301 327 200 233 242 265 254 241 257 274 266 243 278 265 229 211 236 261 144 196 245 303 301 298 292
287 291 297 301 307 310 311 316 319 320 322 321 320 321 320 316 317 325 264 257 279 263 273 290 275 265 260 256 267 239 244 286 303 293 269 327 310 302 293 278 239 256 224 267 222 242 272 235 273 286 294 286 293 293
289 292 294 302 304 307 312 318 320 319 320 321 317 316 315 314 312 322 277 289 261 273 277 259 252 260 246 244 235 235 230 217 215 220 256 257 256 247 257 240 258 247 238 252 277 266 263 290 287 288 284 276 296 295
287 290 295 299 300 304 311 314 317 317 317 317 314 311 310 309 314 315 285 274 276 282 278 289 9 280 263 240 227 215 240 253 267 269 259 249 261 206 260 284 265 259 231 258 271 281 282 274 284 295 294 294 295 296
282 288 289 294 299 304 308 309 311 313 314 313 311 312 309 313 313 310 278 251 226 229 286 299 299 284 231 244 243 233 230 235 239 231 225 238 233 247 238 267 251 238 247 252 269 278 278 287 311 304 290 300 301 306
280 290 290 295 298 301 304 308 312 311 312 311 310 310 310 306 319 308 301 197 205 210 294 305 311 280 290 269 262 245 229 227 221 218 217 229 243 236 256 252 273 236 240 246 257 273 271 288 300 261 307 303 306 307
282 290 292 295 297 301 307 310 306 308 308 307 305 305 301 300 288 243 250 328 312 4 297 297 281 263 273 284 263 225 189 199 223 234 233 246 229 207 255 258 271 269 259 250 255 286 279 267 313 316 306 308 313 298
287 289 290 292 292 296 300 303 301 302 304 305 303 302 297 289 280 258 244 258 255 248 244 262 265 281 342 301 305 180 207 204 205 231 229 223 207 207 245 262 271 272 268 254 206 208 310 306 307 312 318 325 321 311
285 285 286 290 292 290 292 297 299 301 304 309 304 302 285 196 216 244 249 254 184 206 229 225 272 301 328 304 261 272 244 245 212 220 221 219 196 224 239 263 287 316 275 203 147 153 340 326 322 321 333 332 320 318
284 287 288 289 290 291 294 303 308 313 314 310 302 265 242 130 309 294 219 219 196 203 230 259 217 267 305 299 292 291 243 254 242 220 199 229 250 272 313 341 23 99 84 89 256 323 350 334 335 333 337 327 315 316
284 285 286 287 290 292 295 301 305 317 307 344 333 279 331 309 288 240 255 224 181 237 207 241 234 255 236 248 260 228 287 276 268 187 214 232 287 350 13 63 65 70 75 70 64 54 7 345 337 335 336 332 328 328
281 282 284 287 289 285 284 291 301 311 260 277 286 289 267 252 219 239 222 197 223 243 109 294 245 231 257 216 246 226 251 254 252 143 243 25 311 347 18 56 66 64 63 61 51 44 24 11 359 348 339 335 341 340
282 283 285 287 291 294 291 294 298 288 303 275 213 241 237 231 235 242 201 200 226 88 286 289 285 255 221 225 247 257 257 250 329 242 51 53 329 344 38 7 68 61 64 62 57 45 33 21 11 5 352 356 356 3
280 283 284 285 286 287 281 281 297 323 302 252 260 274 252 209 230 217 10 347 61 311 302 297 264 239 232 245 242 255 279 288 314 20 355 358 352 342 10 314 92 76 68 61 53 45 36 24 14 13 13 9 14 23
272 272 274 278 274 267 271 283 288 157 251 257 273 249 246 292 301 5 131 282 248 327 322 307 275 240 251 267 314 303 310 314 359 352 313 321 329 316 242 171 123 102 79 69 58 50 44 31 27 24 20 23 29 35
269 284 268 264 273 277 274 233 161 166 208 235 239 255 263 279 286 17 341 321 354 337 317 252 293 278 252 257 263 2 332 328 331 322 312 306 302 265 169 146 123 110 92 82 76 64 54 41 34 31 30 30 29 33
283 210 240 251 275 125 134 126 177 210 207 222 233 237 259 278 268 274 270 267 325 331 330 303 278 284 293 251 240 207 236 333 322 325 325 315 274 161 155 140 134 127 108 97 91 77 69 67 64 50 39 24 28 35
222 220 227 225 196 264 197 195 232 249 225 230 240 237 230 243 266 270 267 273 287 314 269 265 311 267 261 248 204 182 336 32 337 357 316 302 139 149 160 145 140 123 110 97 91 92 84 74 59 57 59 50 43 38
205 204 230 246 213 152 232 217 224 240 236 240 244 239 256 262 249 260 267 266 251 252 269 238 242 234 238 283 301 11 1 15 337 328 315 351 151 154 146 142 131 123 110 103 110 95 89 78 75 67 61 62 59 45
228 228 227 232 165 214 221 223 200 252 251 246 237 224 233 247 267 249 257 252 214 203 211 225 233 245 256 268 321 313 329 344 331 332 348 64 126 150 160 156 136 125 111 106 101 108 110 98 82 73 68 71 71 56
200 234 226 212 188 219 271 258 220 247 244 242 252 228 248 242 243 245 245 230 213 216 232 234 245 251 258 268 279 285 287 297 290 244 286 208 168 167 136 120 133 135 130 121 110 107 108 90 93 91 92 82 79 73
224 202 130 159 213 223 245 221 232 204 243 255 249 220 257 258 262 252 247 234 238 235 234 239 240 248 252 248 252 253 265 244 249 237 182 149 160 163 159 152 150 146 140 127 124 117 112 113 112 105 100 99 93 86
114 190 198 210 226 214 244 164 209 199 231 227 211 234 236 238 237 232 238 229 240 227 231 237 245 247 249 258 261 257 226 228 232 230 198 203 190 162 156 162 166 154 141 135 128 125 121 117 127 118 118 116 108 104
142 204 232 223 204 249 193 210 212 220 223 224 223 244 256 249 235 238 256 255 250 240 230 230 228 236 242 238 243 244 227 213 223 224 210 179 168 174 170 168 169 160 144 139 144 136 140 137 133 137 129 123 112 102
211 219 219 239 229 242 215 214 207 212 240 224 217 218 239 185 229 243 247 261 257 243 221 212 218 221 227 236 238 238 210 195 192 196 193 188 151 123 154 160 166 161 156 149 159 159 157 155 157 152 150 140 125 115
222 207 209 213 218 212 229 243 228 220 236 221 222 220 205 210 228 245 252 331 18 23 162 192 199 206 218 226 235 229 210 189 175 185 184 182 180 164 163 164 166 175 186 180 167 169 170 171 172 171 172 165 145 149
242 245 212 230 244 235 262 251 254 252 232 214 215 188 200 232 221 231 136 107 56 27 32 86 179 210 234 236 233 221 199 174 166 176 155 177 192 189 173 174 181 178 173 180 181 181 180 179 179 182 184 179 182 189
239 260 232 234 233 218 248 234 233 236 214 181 217 203 216 233 95 115 144 167 313 332 323 5 298 228 232 247 234 159 140 144 120 108 103 112 154 164 168 169 168 147 171 181 184 183 186 187 186 184 184 184 184 189
245 248 260 270 262 224 229 209 225 240 236 234 224 213 271 28 12 11 327 336 358 342 320 31 38 124 83 73 100 144 154 160 157 158 157 141 155 175 181 173 157 171 175 176 170 189 190 190 192 186 181 184 178 176
251 197 247 266 255 256 239 212 243 249 242 225 214 300 302 300 310 307 283 258 269 240 240 150 121 132 118 128 109 96 77 129 117 188 169 173 174 143 157 169 172 170 168 154 160 150 115 155 141 160 168 171 180 177
272 233 245 242 267 266 272 270 265 274 278 235 224 190 173 208 287 354 6 99 127 139 123 112 90 67 102 114 118 119 102 32 25 71 106 106 117 135 141 143 141 146 157 154 160 170 173 181 192 193 195 198 187 183
228 226 262 277 282 292 357 339 346 346 329 301 38 101 132 97 65 30 359 27 76 70 51 68 74 61 65 75 72 62 55 69 59 69 85 93 93 96 106 114 131 144 143 131 146 161 177 189 197 207 217 223 215 206
259 243 241 269 285 318 339 347 351 4 17 28 34 31 36 45 57 31 35 25 50 69 75 74 80 78 76 76 80 78 74 72 65 58 56 51 46 57 79 79 88 95 99 95 88 94 107 142 167 202 209 218 217 208